格洛纳斯-733 COSMOS 1883 [GLONASS]

导读

COSMOS 1883是独联体(CIS,继承苏联航天遗产)于1987年9月16日发射的GLONASS全球导航卫星,归入苏联/俄罗斯“宇宙号”(COSMOS)多用途卫星系列。它作为GLONASS系统组网卫星,承担全球定位、导航与授时服务任务,该系统是全球第二个成熟卫星导航系统,为后续GLONASS全球覆盖组网奠定了基础,推动了全球卫星导航产业发展。

Basic Information
目录编号:
18355
目录名称:
COSMOS 1883 (GLONASS)
国际标识:
1987-079A
轨道中心:
EARTH
卫星名称:
格洛纳斯-733
卫星全名:
格洛纳斯-733 COSMOS 1883 [GLONASS]
卫星状态:
在轨 (已飞行14149 天)
发射日期:
1987-09-16 UTC
国别 :
俄罗斯(独联体) (CIS)
星等 :
--
Orbit Information
数据来源 国际轨道数据 AOE轨道数据
星历时间 2026-06-11T16:43:03+0800
1天前
查看轨道信息
2026-06-11T01:00:00+0800
2天前
查看轨道信息
半长轴 25508.113km 25508.073km
偏心率 0.0004344 0.0004402
轨道倾角 65.598° 65.598°
近地点辐角 243.926° 242.602°
升交点赤经 318.933° 318.955°
平近点角 157.458° 16.375°
近地点 19118.895km 19118.707km
远地点 19141.057km 19141.165km
周期 675.736分钟 675.735分钟
每日圈数 2.131009 2.131014
Detailed Information
平衡模式:
三轴稳定
覆盖范围:
全球
运营商:
列舍特涅夫卫星信息系统
运营商所在国:
俄罗斯
制造商(研发单位):
列舍特涅夫卫星信息系统
制造商所在国:
俄罗斯
使用方式:
暂无
Satellite Introduction
格洛纳斯(GLONASS )是苏联/俄罗斯研制卫星导航系统。标准配置为24颗卫星,其中18颗卫星就能保证该系统为俄罗斯境内用户提供全部服务。该卫星已退役。
2D Orbit Map
3D Orbit Map
Orbit Altitude Analysis Chart
Orbit Inclination Analysis Chart
Orbit Comprehensive Analysis Chart
View Comprehensive Chart